Regional Weather Roundup
Issued by NWS

Home | Current Version | Previous Version | Text Only | Print | Product List | Glossary Off
Versions: 1 2 3 4 5 6 7 8 9 10 11 12 13 14 15 16 17 18 19 20 21 22 23 24 25 26 27 28 29 30 31 32 33 34 35 36 37 38 39 40 41 42 43 44 45 46 47 48 49 50

000
ASUS43 KLMK 260002
RWRKY
KENTUCKY REGIONAL WEATHER ROUNDUP
NATIONAL WEATHER SERVICE LOUISVILLE KY
800 PM EDT MON JUL 25 2016

NOTE "FAIR" INDICATES FEW OR NO CLOUDS BELOW 12,000 FEET
WITH NO SIGNIFICANT WEATHER AND/OR OBSTRUCTIONS TO VISIBILITY.

KYZ001>023-026-027-061>063-070>075-260100-
WESTERN AND SOUTH CENTRAL KENTUCKY

CITY           SKY/WX    TMP DP  RH WIND       PRES   REMARKS
PADUCAH        CLOUDY    80  74  81 S5        29.96S
HENDERSON      CLOUDY    73  66  78 CALM      29.94F
OWENSBORO      CLOUDY    79  77  94 S6        29.99R
HOPKINSVILLE   HVY RAIN  75  73  94 NW17G35   30.02R VSB 1/4
BOWLING GREEN  LGT RAIN  76  73  91 VRB5      30.00F
GLASGOW        NOT AVBL
$$

KYZ024-025-028>034-038-045-046-053-260100-
NORTH CENTRAL KENTUCKY

CITY           SKY/WX    TMP DP  RH WIND       PRES   REMARKS
LOUISVILLE/SDF CLOUDY    80  73  79 SW6       29.99R
LOUISVILLE/LOU CLOUDY    80  72  76 SW5       30.00R
FORT KNOX      CLOUDY    76  74  94 CALM      29.99S
$$

KYZ035>037-039>044-047>052-055>060-089>105-260100-
NORTHEAST KENTUCKY

CITY           SKY/WX    TMP DP  RH WIND       PRES   REMARKS
LEXINGTON      CLOUDY    79  71  76 W6        30.01S
COVINGTON      CLOUDY    84  76  76 SW3       29.99R HX  93
FRANKFORT      CLOUDY    78  71  79 VRB3      30.00S
$$

KYZ054-064>069-076>088-106>120-260100-
SOUTHEAST KENTUCKY

CITY           SKY/WX    TMP DP  RH WIND       PRES   REMARKS
JACKSON        PTCLDY    77  72  84 SE3       30.04R
LONDON         MOCLDY    80  69  69 E3        30.04R
SOMERSET       TSTM      75  72  88 NW18G24   30.08R
MIDDLESBORO    CLOUDY    83  74  73 NE3       30.03R HX  90
MONTICELLO     PTCLDY   N/A N/A N/A N21G32    30.05R
$$





USA.gov is the U.S. government's official web portal to all federal, state and local government web resources and services.